Flag for Germany Weather past 2 weeks in Leutkirch im Allgäu, Baden-Württemberg, Germany

Now
44 °F

Overcast.


Feels Like: 44 °F
Forecast: 33 / 55 °F
Wind: 1 mph from Southeast

Location: Kempten

Current Time: Oct 26, 2014 at 6:21:08 AM

Latest Report: Oct 26, 2014 at 6:00 AM


Visibility: 16 mi

Pressure: 30.32 "Hg

Humidity: 97%

Dew point: 43 °F

Location of Leutkirch im AllgäuLocation

Historic Weather in Leutkirch im Allgäu — Graph

°F

Leutkirch im Allgäu temperature yesterday

Maximum temperature yesterday: 53 °F (at 3:00 PM)
Minimum temperature yesterday: 33 °F (at 4:00 AM)
Average temperature yesterday: 43 °F

Past Weeks' High & Low Weather Summary

 TemperatureHumidityPressure
High72 °F (Oct 19, 3:00 PM)99% (Oct 18, 3:00 AM)30.32 "Hg (Oct 18, 3:00 AM)
Low33 °F (Oct 25, 4:00 AM)38% (Oct 19, 3:00 PM)29.69 "Hg (Oct 21, 8:00 PM)
Average51 °F84%30.03 "Hg
* Reported Oct 11 6:00 AM — Oct 26 5:00 AM, Leutkirch im Allgäu, Weather by CustomWeather, © 2014

Note: Actual official high and low records may vary slightly from our data, if they occured in-between our weather recording intervals... More about our weather records

Advertising

Leutkirch im Allgäu weather history for previous 24 hours

 ConditionsComfort  
Time TempWeatherWind HumidityBarometerVisibility
5:00 AM
Oct 26
44 °FOvercast.2 mph97%30.32 "Hg8 mi
3:00 AM44 °FLight rain. Overcast.1 mph97%30.31 "Hg5 mi
2:00 AM45 °FOvercast.2 mph94%30.31 "Hg19 mi
2:00 AM45 °FOvercast.2 mph95%30.30 "Hg17 mi
1:00 AM45 °FOvercast.2 mph95%30.29 "Hg19 mi
12:00 AM45 °FOvercast.2 mph96%30.28 "Hg16 mi
10:00 PM
Oct 25
46 °FOvercast.2 mph93%30.25 "Hg11 mi
9:00 PM46 °FOvercast.1 mph93%30.24 "Hg15 mi
8:00 PM47 °FOvercast.1 mph98%30.24 "Hg1 mi
7:00 PM47 °FDrizzle. Overcast.2 mph96%30.21 "Hg4 mi
6:00 PM47 °FOvercast.1 mph96%30.20 "Hg11 mi
5:00 PM47 °FOvercast.3 mph95%30.19 "Hg13 mi
4:00 PM52 °FLight rain. Overcast.1 mph76%30.15 "Hg6 mi
3:00 PM53 °FOvercast.1 mph68%30.14 "Hg16 mi
2:00 PM52 °FOvercast.1 mph69%30.14 "Hg14 mi
1:00 PM52 °FOvercast.2 mph57%30.14 "Hg28 mi
12:00 PM49 °FOvercast.2 mph71%30.15 "Hg22 mi
11:00 AM44 °FOvercast.1 mph81%30.18 "Hg31 mi
10:00 AM41 °FLight rain. Overcast.2 mph85%30.19 "Hg28 mi
9:00 AM39 °FOvercast.2 mph90%30.20 "Hg31 mi
8:00 AM37 °FOvercast.1 mph93%30.19 "Hg25 mi
7:00 AM36 °FOvercast.2 mph93%30.18 "Hg25 mi
6:00 AM35 °FOvercast.1 mph95%30.19 "Hg19 mi
Weather by CustomWeather, © 2014

See weather overviewHow to use our weather pages